Theta_e
326 317 313 321 323 322 314 308 293 297 299 291 291 291 292 300 302 300 301 304 303 308 311 311 310 311 308 309 314 316 317 311 311 299 298 318 332 337 338 338 339 339 338 339 339 338 338 340 340 339 339 338 338 341 341 341 345 346 346 343 342 342 340 340 340 341 343 344 343 345 346 346 346 345 345 345 345 343 343 343 343 343 342 342 341 342 341 340 340 341 341 342 342 342 343 343 343
324 313 314 319 316 312 303 305 296 291 291 288 288 292 294 297 299 299 299 302 305 308 308 308 308 311 318 319 318 317 316 319 320 319 325 332 336 336 338 338 339 338 338 339 339 338 337 338 341 339 339 338 340 341 341 344 346 346 346 344 342 341 341 341 340 341 341 341 343 345 345 345 345 345 344 344 344 344 343 342 342 342 343 345 345 344 344 343 343 343 343 342 342 342 342 342 341
326 317 317 318 313 310 307 304 295 290 290 286 287 291 295 293 294 298 303 307 308 308 307 307 311 310 310 314 314 312 307 323 324 325 326 334 330 333 338 339 339 339 339 339 339 338 337 339 342 342 341 341 341 340 340 345 346 346 346 346 343 342 342 342 341 341 342 341 341 342 343 343 344 343 342 344 345 345 345 343 342 342 342 342 343 345 344 344 344 343 343 343 343 342 342 341 341
325 317 317 315 306 307 299 297 293 292 290 287 288 295 293 297 300 302 305 308 308 307 307 306 306 310 314 313 315 321 317 319 325 325 326 330 331 336 338 338 339 339 339 339 339 338 337 340 342 341 340 340 340 340 340 341 345 345 344 345 344 342 342 342 341 341 341 341 340 341 342 342 342 342 341 341 343 344 344 344 343 343 343 344 344 343 344 344 343 343 342 342 343 342 341 341 340
319 319 320 314 309 304 301 296 293 291 289 288 288 293 300 301 302 305 305 307 307 307 307 306 304 310 315 316 317 310 313 322 324 327 325 329 337 337 338 338 339 338 338 338 339 338 337 341 342 342 341 340 340 339 340 341 344 345 345 345 344 342 342 342 341 340 339 339 339 340 341 341 340 341 341 340 341 342 342 342 342 342 343 343 343 343 343 344 343 343 343 342 342 342 341 340 340
317 314 319 314 307 307 301 294 293 292 292 292 291 297 301 303 304 306 306 307 307 306 308 307 304 305 314 316 320 314 323 317 324 326 327 330 335 338 338 337 338 337 338 338 339 338 338 340 341 342 341 341 340 340 341 341 343 345 345 345 345 344 342 341 341 340 338 338 338 338 341 342 342 342 341 340 340 341 341 341 341 340 342 342 342 343 343 342 343 342 342 342 342 341 341 340 340
312 311 310 308 307 306 295 292 292 292 293 294 295 301 303 303 305 306 305 306 306 308 308 309 313 311 312 318 320 324 327 326 325 326 329 331 336 337 337 338 337 337 337 339 339 339 338 340 343 343 342 341 341 341 341 341 342 343 344 344 345 344 342 342 341 340 339 338 338 338 339 341 342 341 341 341 341 341 341 340 340 342 342 342 342 342 343 343 342 342 341 342 341 341 340 340 339
317 310 307 298 296 298 294 292 293 292 293 297 302 303 304 305 305 306 304 303 303 305 308 308 307 307 306 315 315 324 330 331 329 330 331 332 334 335 337 338 336 336 337 339 339 339 342 341 342 343 342 341 341 341 341 341 341 343 344 344 344 344 343 341 341 340 338 336 337 336 339 341 340 341 341 341 341 340 340 341 340 340 340 340 341 341 342 342 342 342 341 340 340 340 340 340 339
312 310 308 302 296 296 292 293 293 294 293 300 302 306 310 305 305 304 301 303 303 304 307 307 306 304 307 317 315 325 327 330 331 331 332 332 332 334 336 337 336 336 338 339 339 339 339 339 341 343 342 342 342 342 341 341 341 341 343 343 343 344 343 341 341 340 338 337 336 336 337 340 340 341 340 340 341 340 340 340 341 340 341 341 341 341 341 341 341 341 341 340 339 339 339 338 337
308 307 299 297 295 293 291 289 293 293 294 300 303 304 304 303 303 303 301 302 302 304 306 307 306 307 314 314 317 322 324 330 331 330 331 331 332 332 334 338 338 337 337 338 339 339 339 342 339 341 342 343 342 341 341 341 341 341 343 343 343 344 343 341 341 339 338 337 336 336 336 339 341 340 340 340 339 339 339 339 340 340 340 340 340 340 340 340 341 340 340 339 339 338 338 336 335
302 307 305 299 293 290 291 289 291 294 296 298 301 303 304 304 303 301 302 301 302 303 305 307 310 312 315 315 314 322 330 330 329 328 331 331 331 331 336 339 339 338 337 338 339 339 340 339 341 339 340 341 341 342 341 341 340 340 341 342 342 342 342 342 340 339 338 337 336 336 339 339 338 338 338 338 338 338 338 338 339 339 339 339 339 340 340 340 339 340 339 339 338 337 336 335 335
302 301 302 293 291 290 290 291 292 292 295 297 298 302 301 303 302 300 300 301 302 303 304 304 306 317 314 313 313 324 329 328 328 330 331 331 330 331 337 339 338 338 338 338 339 339 339 339 339 341 337 338 339 341 341 341 341 341 341 341 341 342 342 342 341 339 338 337 339 340 339 340 338 338 338 338 339 338 337 338 338 339 339 339 339 339 339 339 338 339 338 338 337 336 335 335 334
303 301 297 294 289 292 291 292 292 292 294 294 297 301 302 302 301 301 301 303 304 304 305 305 308 311 309 312 317 324 326 327 329 330 331 330 330 331 336 338 338 337 338 339 339 338 338 338 338 338 335 334 335 337 337 338 339 341 341 341 342 342 341 341 340 339 340 340 339 339 340 341 340 339 339 338 338 337 336 336 336 337 337 337 338 338 339 338 338 338 337 337 336 335 334 334 334
305 304 298 294 293 293 294 292 291 291 290 293 297 302 303 302 302 302 303 303 303 304 305 308 309 318 314 316 315 320 324 328 329 330 330 330 329 331 335 338 338 338 338 339 338 338 338 338 338 337 335 336 335 334 333 335 338 340 340 340 341 341 341 341 340 339 338 337 336 337 338 339 340 339 339 339 338 337 336 337 336 336 337 337 337 337 338 337 338 337 337 335 335 334 333 334 334
306 306 300 296 293 294 292 292 293 291 290 294 299 301 303 304 301 300 304 302 302 305 306 308 307 308 309 313 311 318 324 329 329 330 329 329 328 331 334 336 337 337 337 337 338 338 337 338 338 336 335 335 334 333 333 334 334 335 337 337 338 340 339 337 336 335 333 332 333 333 334 334 334 334 334 334 334 333 333 331 334 336 337 337 337 337 337 337 336 336 336 335 333 333 332 333 333
308 303 300 296 292 292 293 294 293 292 293 296 299 300 300 301 302 301 303 303 303 306 304 302 307 305 309 314 315 322 327 329 330 329 329 328 327 330 332 334 335 336 336 336 337 337 337 337 337 336 336 335 334 333 332 331 331 332 334 335 335 335 335 333 332 331 327 326 327 328 328 328 328 327 328 329 330 332 331 329 332 336 335 336 336 336 336 336 336 336 335 334 333 332 331 331 331
307 302 295 291 290 293 293 294 293 290 294 298 300 301 300 299 302 301 302 306 304 305 309 310 307 319 319 318 321 326 329 329 328 328 327 325 325 326 328 331 333 334 336 337 336 336 336 337 337 336 336 335 334 334 333 331 330 329 329 329 329 330 331 330 328 324 321 321 322 323 325 326 325 326 325 325 324 325 323 326 330 334 335 334 334 335 335 335 335 334 333 332 331 328 327 327 325
304 297 293 292 291 293 294 295 294 295 297 297 299 300 300 297 300 302 303 303 304 305 308 311 320 320 322 322 327 329 329 328 328 327 325 323 323 324 325 328 330 330 331 334 336 337 336 337 337 337 336 335 335 335 334 332 330 329 327 327 326 326 326 324 324 324 326 320 321 323 324 325 325 325 325 328 324 325 324 323 326 330 333 333 333 334 334 333 333 333 332 331 329 329 325 317 316
299 295 294 291 293 295 296 295 297 298 298 300 300 299 301 300 300 300 299 298 302 302 304 310 317 321 323 325 327 327 328 327 327 326 324 323 323 324 324 325 329 329 329 331 333 336 337 337 337 336 336 336 335 335 334 331 330 328 327 326 326 325 326 325 325 324 322 321 320 321 321 321 324 325 325 325 323 321 323 323 325 328 330 330 330 331 331 330 330 330 330 330 329 326 317 316 316
298 297 292 293 297 295 296 295 297 299 300 299 299 299 300 300 300 301 298 297 298 300 302 307 316 317 320 323 325 326 327 326 326 325 324 323 324 324 324 324 327 329 330 330 331 335 337 337 337 337 337 338 336 334 333 331 330 329 328 327 325 325 325 326 325 324 324 323 322 322 321 324 324 323 325 325 324 321 321 321 322 323 324 324 324 325 327 328 328 328 327 327 322 318 316 317 316
298 296 294 297 297 296 296 296 295 300 302 300 300 298 298 299 300 300 297 297 296 297 305 306 314 319 320 322 324 325 325 325 325 325 324 324 324 325 325 325 327 329 330 330 330 332 335 337 337 337 338 338 337 334 332 331 331 330 328 327 326 325 325 326 326 326 324 323 322 322 323 324 324 323 323 322 321 320 319 320 320 320 320 318 319 317 317 318 317 314 317 316 315 316 317 317 317
302 296 298 297 295 296 297 297 296 297 299 301 299 298 297 300 300 298 298 296 295 298 302 306 318 322 322 322 323 324 324 324 324 324 324 324 323 324 325 324 325 328 328 329 330 330 332 336 336 337 338 337 337 334 332 331 331 329 328 328 327 326 326 326 326 326 326 323 322 322 323 324 324 323 322 322 321 321 320 319 319 319 317 317 317 317 314 313 313 313 313 315 315 315 317 317 318
295 296 297 297 297 297 298 297 296 296 298 299 298 299 299 298 297 298 298 297 297 299 301 306 319 324 324 324 323 322 323 323 324 324 324 323 323 324 325 326 326 326 327 328 329 330 332 333 333 336 337 337 336 335 333 331 332 331 329 328 327 326 326 326 325 326 326 324 323 321 322 322 323 322 322 321 321 321 321 319 319 319 319 318 318 316 314 314 314 314 313 315 314 315 315 317 317
299 295 296 297 298 297 297 298 295 295 299 298 298 299 299 296 295 298 298 299 298 299 300 305 317 325 325 323 323 323 323 323 323 325 325 325 324 325 325 326 327 325 326 328 329 330 330 332 333 335 336 336 336 336 334 331 333 332 330 327 328 326 326 326 326 326 326 325 323 321 320 321 322 321 321 320 321 321 320 321 321 319 319 317 319 317 315 313 313 313 314 314 314 313 314 314 314
297 295 297 296 296 297 297 296 295 296 297 296 298 298 297 296 296 298 297 299 300 307 306 306 315 324 323 323 322 322 322 323 324 324 325 326 325 326 325 327 327 325 326 327 328 329 330 332 333 333 335 336 336 336 334 333 334 333 330 328 328 326 327 327 327 326 326 324 323 322 320 319 319 321 320 320 320 320 319 320 319 319 318 316 316 315 315 315 314 313 315 313 311 313 313 314 312
298 297 296 296 296 297 296 297 297 297 298 297 297 294 295 296 298 297 298 298 302 307 310 311 316 321 321 321 322 321 321 322 323 323 324 325 325 324 325 326 327 326 327 328 328 329 331 332 333 333 332 335 335 335 334 333 333 332 330 329 329 326 328 328 327 327 327 325 323 322 322 320 320 320 320 318 319 319 317 317 318 319 317 315 315 316 314 314 314 311 311 311 313 313 313 313 313
299 296 295 295 296 296 296 296 297 297 299 297 297 294 296 296 297 292 297 302 303 308 310 312 314 318 321 321 321 321 321 322 323 324 324 324 325 324 324 325 325 326 327 327 328 328 330 331 332 333 332 331 334 334 334 333 333 332 330 329 328 327 328 328 327 328 328 326 325 323 322 321 320 320 320 319 318 316 316 317 317 316 314 315 316 316 315 315 313 313 313 312 311 311 312 313 313
299 296 295 295 296 297 296 295 295 296 297 296 297 295 296 296 297 292 295 303 304 307 308 310 312 313 317 318 319 320 321 323 324 324 323 323 324 325 324 325 325 325 326 327 328 328 330 331 332 333 334 332 332 332 332 333 333 332 330 330 328 328 327 326 326 327 327 327 325 325 324 323 321 319 319 319 319 317 316 316 315 315 316 313 315 314 315 315 315 314 313 313 312 312 312 312 311
302 297 294 294 295 295 296 294 295 296 295 296 296 295 294 295 293 296 295 303 300 305 306 308 309 311 313 316 317 318 320 322 323 323 324 325 326 326 325 326 325 324 327 328 329 328 329 330 332 333 335 332 333 333 331 333 333 332 331 330 329 329 328 327 326 326 327 328 327 325 324 324 322 321 318 319 317 317 317 317 315 315 316 316 315 314 314 314 312 311 312 312 311 310 310 310 309
298 297 295 294 293 291 294 296 295 295 296 295 297 287 290 294 297 296 297 301 298 300 303 304 306 306 310 313 314 316 318 319 321 322 324 325 325 325 326 326 326 325 326 328 328 328 329 331 332 333 333 333 332 333 332 333 333 333 332 331 329 329 328 327 326 326 326 327 326 325 325 324 323 321 319 318 317 317 317 317 317 315 315 314 314 314 313 312 311 310 310 311 310 308 308 308 308
292 294 295 290 289 286 293 295 294 294 296 295 296 288 288 292 295 296 297 299 299 299 300 302 302 303 305 308 310 313 315 318 321 322 323 324 325 325 325 326 326 326 324 326 327 329 328 331 332 332 330 332 331 331 331 333 333 333 332 331 330 329 328 328 327 326 326 326 325 325 324 324 324 322 320 319 317 316 316 315 315 316 316 314 313 313 314 313 312 311 308 311 307 307 306 306 309
293 290 286 289 287 288 293 295 295 294 296 295 294 288 290 293 293 294 297 297 298 297 297 299 299 300 304 305 308 310 313 315 319 321 322 324 325 325 325 325 326 326 325 326 327 328 328 330 330 331 329 331 331 331 331 333 333 333 332 328 331 329 328 328 327 327 327 326 325 325 324 324 324 323 321 320 318 317 316 315 315 315 314 314 313 312 313 313 311 310 309 311 308 307 306 306 305
292 289 286 286 287 288 292 294 293 296 294 296 292 287 289 291 293 295 295 297 297 296 295 297 298 298 302 305 307 309 311 312 314 318 320 322 324 325 325 326 326 327 327 325 326 327 327 328 328 330 329 330 331 331 330 330 331 332 332 332 331 330 329 328 328 326 326 326 325 325 325 325 324 324 322 320 319 318 316 316 315 315 314 313 312 311 312 312 311 311 308 309 310 308 308 307 306
287 290 286 288 288 287 286 291 294 294 293 291 292 290 288 290 293 295 296 296 294 294 294 296 299 299 299 304 307 309 310 312 313 316 319 321 322 324 326 324 326 327 327 326 326 327 327 327 328 329 330 330 331 331 330 329 330 330 332 332 330 330 329 329 329 327 327 326 325 325 325 325 324 324 323 321 320 319 318 316 315 315 314 313 311 311 311 311 311 311 309 308 310 309 307 308 308
284 286 286 287 289 289 289 288 291 293 293 291 291 289 291 292 292 293 296 295 295 294 295 295 298 298 298 301 305 307 309 310 313 316 319 320 321 322 324 324 324 326 327 327 326 327 327 327 326 326 328 328 330 330 329 329 328 329 330 330 330 330 330 329 329 328 327 327 326 325 326 326 324 325 324 322 320 319 318 316 315 314 314 312 311 311 311 310 309 310 311 309 309 309 310 310 309
290 290 289 288 287 287 289 291 293 294 290 289 288 290 291 293 291 292 294 294 294 295 294 293 295 297 298 299 303 305 306 308 312 315 318 320 321 321 322 323 323 325 326 326 325 326 326 326 326 326 327 328 328 329 328 327 326 326 326 325 327 329 330 328 328 328 326 326 326 325 326 326 325 325 324 323 321 319 318 316 315 314 312 312 311 310 310 310 310 309 309 309 306 304 305 305 305
292 293 290 289 289 289 290 292 293 293 292 289 289 290 289 291 290 292 293 293 292 292 293 294 293 294 297 298 300 303 304 306 308 313 315 318 319 320 321 322 322 322 324 325 325 325 325 326 325 325 327 328 326 327 327 327 325 323 322 325 325 327 328 328 327 327 327 326 325 325 325 325 325 324 324 323 322 319 319 317 316 313 312 312 311 312 312 311 309 309 307 306 307 305 304 302 302
291 289 288 287 289 286 290 292 293 292 292 290 290 289 289 290 291 292 292 291 293 294 293 294 294 293 296 297 299 300 303 303 303 307 312 314 317 318 319 320 318 320 322 323 324 325 325 325 325 326 326 327 327 328 327 327 327 326 325 325 323 325 327 327 327 327 327 325 325 325 324 324 325 324 322 323 322 321 319 317 316 314 312 311 311 309 308 306 306 305 306 304 306 307 305 303 302
293 289 287 287 286 288 291 291 292 292 293 288 289 289 290 292 293 292 291 293 294 295 295 296 295 294 294 296 297 298 298 300 301 306 311 313 315 317 318 319 320 322 322 323 324 324 324 324 326 326 326 327 327 326 327 326 326 325 325 321 323 317 323 328 329 328 324 325 325 325 323 324 324 324 323 322 323 321 320 318 316 314 312 310 308 307 307 305 306 306 306 306 302 302 303 301 302
290 288 287 284 287 287 286 289 291 291 288 289 288 287 289 291 292 292 292 293 294 295 295 295 295 296 296 296 297 298 298 299 300 302 307 310 313 316 317 318 320 320 320 322 323 324 325 324 325 326 326 326 326 326 324 326 325 323 323 321 320 321 319 322 325 326 326 325 325 325 324 323 323 323 322 322 323 323 322 321 318 314 311 310 310 308 306 307 306 305 306 307 307 304 302 301 300
291 290 288 288 291 290 285 288 290 290 291 290 287 285 286 287 289 290 292 293 294 294 293 294 294 296 297 297 296 297 299 299 300 300 302 308 310 313 316 317 318 319 320 321 322 323 325 324 325 325 326 326 326 324 323 324 322 319 319 316 317 318 317 317 322 324 327 327 326 326 326 326 326 324 324 323 322 324 324 323 319 316 312 310 310 310 309 308 308 307 307 307 307 308 304 299 299
288 292 291 290 291 288 289 289 288 285 285 287 287 278 278 282 286 290 293 292 292 293 293 294 295 295 295 295 296 297 298 299 300 301 301 306 311 312 314 315 316 318 319 321 323 324 325 325 324 324 325 325 325 324 324 323 323 323 320 320 319 319 320 319 319 322 324 324 326 328 327 328 328 327 326 325 324 323 324 323 321 317 314 312 311 311 311 309 308 307 308 308 307 308 309 304 301
287 288 293 293 291 289 288 288 288 282 281 287 288 281 275 281 284 285 287 288 291 292 292 295 295 295 295 296 297 297 298 298 298 300 301 303 308 311 312 313 315 316 318 319 320 322 323 324 324 324 324 324 324 323 322 321 323 323 322 323 322 321 321 321 322 318 323 325 325 325 327 328 328 327 325 326 325 324 324 323 322 320 317 315 312 312 312 311 310 310 309 308 308 307 307 306 306
285 291 295 294 292 290 289 288 286 281 283 288 287 281 277 279 284 288 288 287 288 289 291 292 294 294 295 296 297 296 298 298 299 300 301 302 306 310 311 313 314 315 316 317 318 319 320 321 322 322 323 322 323 323 321 322 323 322 322 322 321 321 321 320 320 317 317 320 322 323 325 326 327 326 326 325 325 324 322 323 322 321 318 317 313 313 313 313 312 311 309 309 309 308 307 306 306
288 294 296 293 293 291 291 289 285 284 283 281 280 287 282 277 282 286 286 288 288 289 290 292 293 294 295 296 297 296 298 299 299 300 301 301 302 306 309 311 313 314 314 315 316 317 318 319 319 320 321 320 320 321 321 320 321 322 321 321 319 319 320 318 314 315 315 316 321 322 324 325 325 325 326 325 325 325 321 322 322 321 320 318 313 314 314 313 312 311 308 306 307 307 307 307 307
294 296 296 295 295 293 291 285 287 286 282 278 281 284 278 278 281 284 284 288 286 287 290 293 294 295 295 296 297 298 297 297 298 300 301 302 302 303 305 307 308 310 311 312 313 315 316 316 316 318 319 319 319 319 320 320 319 318 319 318 318 316 313 312 312 314 314 314 317 318 322 323 323 323 324 324 324 322 320 320 321 321 320 320 314 314 313 313 312 312 311 309 308 308 308 307 307
296 294 292 290 288 286 284 284 284 285 279 279 280 284 283 277 281 284 286 287 289 290 289 289 290 293 295 296 297 298 298 298 298 298 297 298 297 299 300 302 303 303 303 306 308 311 313 314 315 316 318 318 317 318 319 319 319 318 320 318 318 316 313 313 312 312 313 312 315 316 319 320 320 322 322 321 321 322 322 320 320 321 320 316 314 314 313 313 312 312 311 310 308 308 308 307 306
295 290 286 287 285 283 282 282 283 278 275 278 281 283 283 276 277 282 287 287 287 289 290 291 290 293 294 294 295 295 296 297 297 296 297 297 299 298 297 300 300 300 300 302 304 307 311 313 314 315 315 316 316 317 317 318 318 318 318 318 317 317 315 314 314 314 313 313 314 314 314 315 317 319 320 321 321 322 322 321 319 318 317 317 315 314 314 313 312 311 310 309 309 308 308 306 306
292 289 288 283 280 281 277 279 277 275 276 280 281 283 282 281 284 287 288 291 291 289 288 290 290 292 295 296 297 296 297 298 299 298 298 299 299 299 297 297 298 300 301 302 303 305 308 311 312 314 314 314 315 315 316 316 316 316 316 316 315 315 314 314 315 314 312 314 314 313 312 314 313 314 317 320 320 321 321 319 319 319 319 317 316 314 313 312 311 310 309 308 308 307 307 306 305
288 287 283 281 277 274 272 273 275 275 279 281 280 282 281 281 284 292 292 295 297 294 290 290 292 294 296 296 296 297 297 298 299 299 298 298 298 298 298 297 298 299 300 301 302 303 305 308 309 312 313 312 312 313 314 314 315 315 314 314 314 313 313 314 314 314 313 313 314 314 314 315 314 315 316 317 318 319 319 319 318 318 319 318 316 315 313 312 311 310 309 308 307 307 306 305 305
289 288 288 284 283 277 273 275 274 275 276 279 281 279 275 278 282 286 292 296 295 293 292 292 293 293 294 295 295 296 296 296 296 297 299 300 300 299 300 299 298 298 299 300 301 302 302 305 307 309 311 310 311 312 313 313 313 313 312 312 313 312 314 313 314 314 313 312 312 314 314 314 315 314 315 315 312 315 315 315 314 315 316 316 315 314 312 310 309 308 307 306 305 304 304 305 305
288 290 290 284 284 285 280 282 279 276 275 277 278 277 278 282 286 290 290 289 291 292 291 291 292 294 294 295 296 296 296 296 296 297 298 299 300 300 300 299 299 299 299 299 300 302 303 304 305 307 310 309 310 310 311 312 312 312 311 311 311 311 310 312 311 311 313 313 312 313 313 313 314 314 313 313 312 313 313 312 311 312 313 313 312 311 309 308 306 305 303 301 302 302 304 303 303
286 288 283 285 290 286 282 282 283 280 275 274 277 280 281 284 288 292 293 289 290 290 290 289 290 289 289 291 293 294 295 294 294 296 297 298 296 298 300 299 299 299 298 300 301 303 304 303 304 305 307 306 307 308 310 309 310 310 310 311 310 310 311 312 313 312 313 313 312 311 313 313 313 312 313 312 312 310 312 312 311 310 309 309 309 308 307 306 304 303 301 299 299 298 300 300 299
287 282 286 289 291 290 285 279 280 276 274 274 277 278 277 279 278 286 286 289 292 291 290 289 289 289 290 292 292 294 295 295 295 296 297 298 300 301 300 300 301 301 301 301 302 303 304 305 305 305 304 306 306 307 308 308 308 309 309 310 310 310 311 312 312 311 311 312 311 311 310 310 310 311 311 310 309 308 308 308 309 308 307 306 306 305 304 304 302 301 299 299 299 297 298 297 297
286 285 290 287 281 282 282 282 274 273 271 272 277 277 276 278 280 284 286 286 288 290 290 289 290 290 292 292 292 292 293 296 297 298 298 298 299 300 301 301 301 301 301 302 303 304 304 302 303 305 305 306 306 307 307 307 308 309 310 310 310 310 310 310 311 311 310 311 311 310 309 309 309 307 306 306 306 304 303 302 304 302 303 301 300 300 299 299 299 298 296 297 295 296 297 296 295
290 290 286 287 285 283 280 281 278 278 271 272 271 277 277 281 281 285 289 289 289 289 287 288 289 291 292 292 293 292 293 296 298 299 300 300 299 299 300 300 301 301 301 302 302 302 303 304 303 303 303 303 304 305 305 307 307 308 308 308 308 310 309 309 309 310 310 310 310 308 307 304 306 304 304 303 299 299 296 297 297 299 297 296 296 296 295 295 295 297 296 296 295 295 296 296 293
284 284 283 286 283 285 284 283 283 278 272 271 269 271 274 280 285 287 290 290 287 287 288 290 290 292 292 292 293 293 294 296 297 297 298 298 297 296 296 297 298 298 298 299 302 303 303 302 304 303 305 304 305 305 305 307 306 307 306 308 308 308 308 308 306 308 309 307 306 303 304 304 299 300 296 295 295 296 296 295 295 294 296 295 294 294 294 294 295 295 294 295 295 295 296 295 293
287 287 285 286 282 281 281 279 282 280 279 273 272 274 275 283 287 289 287 287 288 290 290 292 292 292 291 292 292 294 296 296 296 294 295 295 296 296 295 295 295 296 297 299 300 301 300 302 304 303 304 305 304 304 305 306 305 306 306 307 307 305 307 305 305 304 304 303 301 299 299 297 297 295 294 296 297 295 293 295 295 295 294 294 294 298 293 293 295 294 294 294 294 294 295 295 293
Wind_Speed
7 7 5 4 0 1 2 1 1 2 1 3 3 1 1 0 3 5 5 3 6 1 1 3 6 7 3 7 12 10 6 1 1 3 3 2 6 11 13 12 11 10 8 5 5 5 5 9 12 12 12 12 12 11 10 10 13 13 13 13 13 16 16 15 16 16 16 16 16 17 17 17 18 19 19 18 18 18 19 19 19 19 19 18 20 20 20 20 20 20 20 21 21 20 19 19 20
6 5 5 3 1 2 1 1 1 2 3 4 5 3 4 2 5 7 5 4 1 2 1 6 6 10 14 14 11 5 9 6 1 3 4 7 11 10 13 12 12 12 8 6 5 5 4 6 11 12 12 12 11 10 9 12 14 13 11 12 13 14 15 15 15 16 16 15 17 18 18 18 18 18 19 19 19 18 17 18 18 19 19 20 20 21 20 20 20 20 20 20 20 20 18 19 20
5 6 6 6 1 1 1 2 1 1 1 2 2 3 1 5 5 2 4 6 6 4 6 6 7 5 4 3 5 4 0 3 8 6 7 10 13 8 12 11 10 11 10 6 5 5 4 6 9 11 12 12 12 11 12 15 13 12 12 11 13 14 15 15 15 15 15 15 15 16 17 17 18 18 18 19 18 18 17 18 17 17 18 18 19 19 19 19 19 20 19 19 20 19 18 19 19
3 2 1 3 2 2 1 2 3 1 1 5 1 1 1 8 7 7 4 5 4 5 3 4 5 1 6 12 7 8 6 3 2 5 8 8 7 11 12 12 11 9 7 6 5 4 4 6 10 11 12 13 13 11 12 14 15 13 11 10 10 12 15 15 15 15 15 14 15 16 16 17 17 16 17 18 18 17 18 17 18 17 17 18 18 18 19 19 18 19 19 19 18 17 17 18 18
2 2 2 1 1 1 1 2 2 3 3 3 4 0 4 6 9 9 4 4 5 6 3 3 4 3 4 6 1 2 3 5 3 0 3 5 11 10 12 13 11 9 9 8 6 5 4 9 9 10 12 13 12 12 13 12 13 13 11 10 9 11 14 15 15 14 13 14 14 16 16 16 16 16 17 17 17 17 17 16 16 16 16 17 17 17 18 18 18 18 18 18 18 17 17 18 18
3 3 0 2 0 2 2 2 3 1 8 2 4 5 4 6 10 10 5 4 4 4 2 3 3 2 4 2 1 3 8 6 5 2 5 10 12 13 13 10 10 10 9 8 6 5 5 9 9 10 12 13 12 12 12 11 13 13 12 12 12 10 12 14 14 15 14 14 14 14 15 16 16 16 16 16 16 16 16 16 16 16 17 16 16 17 17 17 17 17 17 17 17 16 16 17 17
2 4 1 3 2 1 3 2 2 3 7 3 7 7 8 4 10 12 5 5 4 4 3 3 8 7 6 1 3 2 5 4 3 4 4 9 12 12 11 11 10 10 10 8 7 5 6 9 10 11 11 11 12 12 12 11 12 13 12 13 12 10 12 14 15 15 14 14 14 14 15 15 15 15 15 15 15 16 15 16 16 16 16 16 16 17 17 17 17 17 17 16 17 15 15 15 17
0 2 0 2 1 1 2 2 2 2 4 2 6 12 8 9 7 9 7 5 2 3 0 4 3 6 2 3 4 4 5 3 6 6 9 10 11 11 11 10 11 10 9 8 7 5 8 9 10 10 11 12 11 12 12 11 12 13 12 12 12 11 10 14 14 15 15 14 13 14 14 15 14 15 15 14 14 14 16 15 15 15 15 15 16 16 16 17 16 17 16 15 14 14 14 15 15
1 1 1 3 1 1 1 3 3 2 2 4 2 7 10 11 7 10 6 3 3 2 3 3 7 7 1 7 3 1 3 10 7 10 10 11 11 10 9 11 11 9 10 8 7 6 5 9 10 10 10 11 11 12 12 12 11 12 13 13 13 12 11 14 14 14 14 14 13 13 14 14 14 14 14 14 15 15 14 14 14 15 15 15 15 16 16 15 16 16 15 14 13 13 14 14 14
0 2 0 2 3 3 2 5 1 2 1 2 9 8 7 5 6 8 8 6 5 4 4 3 3 6 4 8 4 1 2 8 11 7 7 9 9 7 10 12 12 12 9 8 7 6 5 9 10 9 9 10 11 12 12 11 10 13 13 12 12 12 13 14 14 14 14 14 13 12 12 14 15 14 14 14 14 14 14 14 15 14 14 14 14 15 15 15 15 15 14 13 12 12 13 13 13
0 1 1 0 0 2 3 5 2 1 1 2 4 5 8 6 9 6 7 6 4 5 2 7 6 10 6 2 0 2 3 7 12 11 9 8 5 6 12 13 12 12 11 9 8 6 6 5 10 9 9 9 10 11 11 10 11 11 13 12 12 13 13 13 13 13 13 13 12 12 13 12 13 13 13 13 13 13 13 13 13 13 13 13 14 14 14 14 15 15 14 13 11 11 12 12 13
1 1 1 2 4 5 5 3 3 2 1 1 3 5 3 8 6 6 6 8 4 5 4 5 5 5 6 3 2 5 7 6 8 8 8 6 5 7 12 10 11 11 12 10 8 6 5 5 5 8 9 9 9 10 9 9 9 9 9 12 12 12 12 13 12 12 13 12 13 13 12 12 12 13 13 13 12 12 13 13 13 14 14 13 13 14 14 14 14 14 14 12 11 11 11 11 13
2 0 1 1 3 3 3 1 7 4 1 3 6 3 3 7 6 9 7 8 7 7 2 3 8 4 3 2 2 5 9 6 6 6 6 6 4 7 10 11 12 12 10 10 9 7 6 5 5 5 6 10 9 10 10 9 9 9 9 10 11 11 12 12 12 12 12 12 12 12 11 11 13 14 14 13 12 12 12 11 11 13 13 13 13 14 14 13 13 14 13 12 10 11 10 11 11
2 1 3 3 0 2 1 1 3 4 3 4 2 1 1 4 4 9 10 9 7 8 2 6 3 8 4 4 2 7 8 8 7 6 5 5 3 6 11 10 11 11 11 10 9 8 6 5 5 5 6 6 5 7 9 9 9 10 9 8 8 10 11 10 10 11 11 11 9 9 10 11 12 13 12 11 10 11 10 10 10 11 12 13 13 13 13 13 14 14 13 11 10 10 9 10 11
0 0 1 1 2 0 3 4 7 5 6 4 4 4 1 2 4 4 12 9 3 1 3 4 4 3 7 8 5 9 10 12 9 7 6 3 4 7 9 10 11 10 10 10 9 9 7 6 5 5 4 4 5 5 4 7 10 10 10 9 9 10 10 10 11 11 11 11 11 11 10 11 11 12 11 11 11 11 10 8 9 11 13 13 12 12 13 13 14 14 13 11 9 8 8 8 9
1 2 1 0 5 3 5 4 4 3 2 4 4 4 4 4 3 4 0 5 3 1 2 1 2 1 6 10 7 13 13 13 11 7 5 4 4 6 8 9 9 10 9 9 9 8 7 7 5 5 4 5 4 4 5 5 8 10 9 9 9 10 10 10 10 10 10 10 11 11 11 9 9 9 11 8 11 10 9 7 10 10 11 12 12 12 12 13 13 13 12 10 9 8 7 7 7
1 3 1 0 4 2 4 2 6 4 1 2 2 5 5 2 1 1 1 4 10 1 5 3 1 3 3 5 11 13 14 12 11 7 5 4 5 6 6 7 7 6 6 9 8 8 8 8 8 6 5 5 5 5 4 5 6 10 8 9 9 9 9 9 9 9 9 9 9 10 9 7 6 6 7 6 8 7 9 10 11 11 9 10 11 12 12 12 12 11 10 10 9 7 6 6 6
1 2 2 2 4 1 2 4 5 4 7 5 6 5 7 5 0 1 3 8 7 4 8 2 7 6 2 6 16 15 15 15 12 11 8 6 5 7 7 6 7 7 6 8 8 9 8 8 9 8 6 7 6 5 4 4 5 6 6 5 5 6 7 7 6 4 5 4 8 7 6 5 5 5 6 6 5 6 8 10 10 11 11 11 11 13 13 12 11 10 9 9 9 6 5 3 3
2 2 3 6 3 4 1 2 3 7 5 12 7 3 7 5 7 3 5 4 5 6 3 3 8 6 9 12 15 16 15 13 13 11 10 9 9 11 9 7 8 7 6 7 6 9 9 8 8 8 8 7 7 6 5 5 5 5 5 5 5 5 5 5 4 4 4 3 3 3 3 4 5 5 5 6 5 7 8 10 10 10 11 10 10 11 11 10 9 9 7 6 5 4 2 2 2
3 2 3 5 2 1 2 4 3 2 9 7 7 4 5 4 3 2 5 7 5 8 7 3 9 9 10 11 13 14 14 13 13 12 10 9 8 10 9 9 8 8 7 6 7 7 9 8 9 9 9 9 8 6 6 6 5 5 5 5 5 5 5 5 4 4 4 4 3 2 4 4 5 5 7 11 8 5 6 9 10 10 10 9 10 7 7 8 7 6 4 4 3 2 1 1 1
2 2 3 2 1 1 2 3 5 3 12 10 9 3 4 4 4 4 8 9 4 4 8 11 11 14 12 12 13 12 13 13 12 11 10 10 7 6 8 8 8 8 6 6 6 7 9 9 8 8 9 8 9 7 7 6 6 5 5 5 6 6 5 5 5 4 4 4 3 4 4 5 6 6 5 5 5 5 4 4 4 4 4 4 5 4 4 3 4 2 0 1 0 1 0 1 1
1 5 6 3 1 0 2 3 4 2 4 11 7 8 5 2 2 4 10 9 9 9 9 9 15 15 16 14 12 11 13 14 13 12 11 12 12 10 7 4 4 6 6 7 7 6 8 9 8 8 9 9 9 8 8 7 7 6 6 6 6 5 6 5 5 5 5 3 3 5 5 7 6 6 5 5 5 5 5 4 4 4 3 4 3 3 3 3 3 3 2 2 2 1 2 2 3
3 3 3 1 2 1 1 3 4 1 5 7 7 5 5 5 2 3 7 6 2 4 8 12 16 17 17 15 14 13 13 15 14 15 13 12 11 10 9 7 8 9 8 7 7 5 6 8 8 9 9 8 9 8 7 7 7 7 6 6 6 6 6 6 5 5 6 4 4 5 6 6 6 6 6 6 5 5 5 4 5 4 4 4 4 4 2 3 3 3 3 3 2 1 2 2 2
4 5 1 3 0 4 3 0 4 2 10 6 4 5 7 6 5 3 4 2 2 3 3 12 16 14 15 15 15 18 16 16 15 14 13 13 12 13 11 10 8 5 7 8 7 6 7 8 8 10 9 9 8 8 8 8 6 7 7 7 6 7 7 6 6 6 6 6 5 4 6 6 6 6 6 5 6 5 5 5 5 5 4 5 5 5 4 3 3 2 3 2 2 2 3 1 1
4 5 2 1 1 1 0 0 2 2 3 1 7 7 7 6 4 2 3 4 3 1 3 12 13 14 14 15 15 14 13 12 13 12 10 9 9 9 8 8 9 7 9 9 8 8 7 8 8 9 10 10 9 8 8 8 7 8 7 7 7 7 6 6 6 6 5 5 6 4 4 6 5 6 6 6 5 6 5 6 5 6 5 4 5 5 5 4 4 4 3 3 2 3 1 1 1
3 6 2 1 0 0 1 2 1 1 1 4 6 3 0 3 2 3 6 5 4 4 8 12 15 15 14 15 15 14 13 14 12 12 14 10 8 10 11 10 11 11 10 9 9 8 7 8 9 9 10 10 9 9 7 7 7 8 8 8 7 7 6 6 6 6 6 6 6 5 5 5 6 6 6 5 7 7 5 5 6 6 6 4 5 6 5 5 5 3 3 3 4 2 1 1 1
1 6 4 4 3 1 2 2 1 1 1 1 6 4 2 1 3 5 3 7 4 7 10 9 14 15 13 11 11 12 14 14 15 12 8 7 10 10 11 10 12 11 10 11 10 9 8 9 9 9 9 8 8 9 8 7 7 7 7 7 6 7 7 6 6 7 6 6 6 6 5 5 6 6 6 5 4 5 5 5 6 7 5 5 6 6 5 5 4 4 4 5 3 2 2 2 1
5 1 3 3 1 1 0 1 1 0 0 1 6 2 0 1 0 7 5 6 8 12 11 10 10 11 10 10 11 9 11 12 11 11 15 13 12 12 11 11 11 10 12 12 10 8 9 11 10 10 10 8 9 8 8 8 8 8 7 6 6 6 6 6 6 6 7 6 5 6 6 6 5 6 6 6 5 4 4 5 5 5 5 5 6 6 5 5 5 4 4 4 4 3 3 3 3
2 5 2 1 1 1 1 4 3 1 2 2 3 4 1 1 7 8 6 10 6 12 11 12 10 10 9 9 9 8 11 10 10 12 14 13 10 10 11 8 10 10 9 11 11 9 11 11 11 11 10 9 9 9 8 8 8 8 8 7 6 6 6 6 6 6 7 6 6 7 7 6 5 6 6 7 6 6 5 5 4 4 5 6 5 5 6 4 4 4 4 2 2 2 3 3 2
0 2 2 1 1 3 6 1 2 2 1 3 2 2 6 10 13 6 5 10 6 9 9 9 9 9 9 9 9 9 8 9 11 13 12 11 10 10 12 9 9 9 8 8 10 11 9 8 8 8 11 10 10 9 8 8 8 8 8 7 7 7 6 6 6 6 6 6 7 7 7 6 6 5 6 5 6 6 6 6 6 5 5 4 4 5 6 5 5 4 4 4 3 3 3 3 3
3 3 2 3 1 3 3 5 6 4 1 1 1 4 6 6 8 5 6 10 12 11 9 10 9 8 9 9 9 10 10 11 14 13 12 11 10 9 11 8 8 8 8 8 12 12 10 10 8 8 10 11 9 9 9 9 8 8 8 7 7 7 7 7 6 6 6 6 5 6 7 7 7 6 6 7 6 7 7 6 6 6 5 4 5 5 6 5 5 5 4 5 3 3 3 3 4
2 3 5 1 4 4 2 1 8 8 0 2 3 2 8 7 6 5 9 7 9 9 7 8 7 8 8 9 10 9 10 10 11 12 12 12 12 10 10 11 10 9 10 10 10 11 11 10 10 9 9 12 11 10 8 8 8 8 8 8 7 7 7 7 7 7 7 6 6 6 7 7 7 7 6 7 7 7 7 7 7 6 5 5 6 5 5 6 5 4 4 5 4 4 3 3 3
2 6 2 4 4 4 1 2 4 1 3 1 4 5 3 3 2 3 5 9 9 9 7 7 8 8 8 8 8 9 8 8 8 11 11 11 10 10 11 11 11 12 10 9 11 10 11 11 12 12 12 12 12 11 8 7 7 8 9 9 8 8 8 7 6 6 7 7 7 7 7 8 7 7 7 7 7 7 7 7 6 7 6 6 6 6 6 6 5 5 4 4 5 5 5 4 4
4 2 3 4 7 2 2 3 3 2 5 5 3 2 5 2 1 2 4 6 6 7 8 7 8 7 7 7 8 9 9 9 11 11 12 11 10 11 11 11 12 12 11 11 11 13 13 12 12 12 11 11 10 11 10 8 7 8 8 8 9 9 9 8 7 7 7 7 7 7 7 8 8 7 7 7 7 7 7 7 6 7 6 6 6 6 6 5 5 6 6 4 5 5 5 6 5
4 3 4 4 0 6 5 4 4 6 2 5 2 3 8 9 1 4 5 5 8 8 9 9 9 9 8 7 7 8 9 11 12 10 12 12 11 11 10 10 10 11 10 12 10 10 10 10 10 11 11 11 10 10 10 8 7 6 7 8 8 9 8 8 8 7 7 8 8 8 8 8 8 8 8 7 7 7 6 6 6 6 6 6 6 6 5 5 5 5 6 5 3 3 6 6 6
5 8 6 4 4 4 5 5 1 9 5 4 5 8 10 12 4 4 5 4 7 9 7 6 7 8 8 9 9 9 9 12 9 9 10 11 11 11 10 10 9 10 11 11 11 10 10 10 9 9 10 11 9 9 8 8 7 8 8 6 8 9 9 9 8 8 6 8 8 8 8 8 8 8 8 8 7 7 7 7 7 6 6 6 7 7 6 7 8 6 6 6 4 1 2 2 4
2 2 5 9 7 3 2 1 1 0 2 7 8 8 5 7 5 6 7 4 4 5 6 8 7 9 9 10 11 12 11 13 9 11 10 11 12 10 10 10 10 9 10 11 11 10 11 12 11 13 11 10 9 10 9 10 10 8 7 9 9 8 9 9 9 8 7 7 7 7 7 8 8 8 8 7 8 7 7 6 6 6 7 7 8 9 9 8 6 6 6 4 6 4 2 2 2
1 2 4 6 6 5 2 1 0 3 4 3 4 4 6 8 7 8 4 5 9 11 10 9 10 8 10 12 12 13 13 4 5 6 9 9 9 9 8 9 9 11 10 11 13 13 11 11 13 13 10 11 11 11 10 10 10 11 11 11 8 7 8 10 10 8 9 7 7 7 7 7 8 8 8 8 8 8 7 6 7 8 7 7 8 5 4 5 5 4 5 3 3 6 5 5 4
0 1 2 4 5 1 1 1 1 0 1 5 3 5 9 10 9 4 4 9 8 11 12 14 13 10 8 10 11 10 6 8 8 11 11 11 12 11 10 10 11 14 13 14 13 12 11 10 12 11 11 11 11 11 11 12 9 9 9 7 8 5 5 7 7 7 6 7 8 8 7 7 8 8 8 8 8 7 8 7 7 6 7 7 6 5 6 6 6 7 7 7 4 1 2 3 6
4 1 1 2 4 6 2 2 0 1 1 1 1 2 8 6 5 7 6 8 7 9 12 11 9 13 12 12 12 11 12 11 11 12 13 12 12 12 11 11 12 10 10 10 12 14 12 12 11 12 12 11 11 11 12 11 10 8 7 6 6 6 5 5 6 6 7 8 9 8 7 7 7 8 8 8 7 7 8 8 7 6 7 7 8 7 6 7 6 5 6 7 5 4 3 6 5
2 4 2 1 0 1 3 3 1 0 1 1 1 5 7 5 6 6 6 8 7 5 6 7 7 8 10 7 5 9 14 13 12 10 10 10 11 14 15 14 11 12 13 14 14 13 11 14 14 14 13 13 12 11 11 9 7 5 5 3 4 3 1 6 6 7 9 10 8 9 10 7 7 7 7 8 8 8 7 7 7 7 7 7 6 7 8 8 9 8 8 6 7 7 6 4 4
5 3 7 4 2 4 2 4 4 2 2 1 3 2 5 4 6 11 10 5 6 7 8 10 12 11 7 7 12 11 9 10 14 14 14 15 16 14 12 13 14 14 14 14 13 14 13 13 13 12 11 11 12 12 12 10 10 10 9 9 9 8 9 8 11 13 11 11 13 8 8 9 8 8 8 8 8 7 8 8 7 7 7 7 7 7 7 6 6 7 8 8 8 7 6 5 5
7 8 2 7 8 7 5 4 2 0 1 2 1 7 6 6 2 3 5 3 10 7 7 12 12 12 9 12 12 12 13 11 8 9 9 10 12 12 13 14 15 15 15 11 11 12 13 12 13 13 12 11 11 11 12 10 11 10 13 14 13 13 14 12 9 5 8 7 5 7 8 8 9 9 8 7 8 8 7 7 8 8 8 8 8 7 7 8 7 8 7 7 7 7 6 7 7
5 1 1 2 7 7 6 5 3 1 1 1 2 3 2 6 7 7 5 4 8 8 7 10 9 9 10 12 12 10 11 11 12 13 12 14 14 16 18 17 15 17 13 12 12 11 13 12 12 13 11 11 10 10 12 13 13 12 12 12 12 12 13 12 10 7 5 6 7 7 7 7 8 8 8 7 7 7 8 8 8 8 8 8 8 8 8 7 6 5 7 9 8 7 8 9 7
3 1 5 5 7 5 5 5 3 1 1 7 2 1 0 4 7 6 2 3 4 6 7 9 10 10 12 13 12 10 11 12 11 12 13 14 14 15 14 14 15 12 11 13 13 13 12 11 11 10 11 10 10 12 12 12 12 13 13 12 12 11 10 8 5 5 6 7 8 7 8 8 8 9 9 9 8 7 7 8 8 8 8 8 8 7 7 7 8 7 7 7 7 7 8 8 7
2 2 4 4 5 4 6 3 4 0 1 6 3 1 3 7 7 5 2 1 6 7 8 10 10 11 12 12 12 12 10 8 9 12 12 12 13 14 13 11 10 12 10 9 8 8 9 8 10 11 12 10 10 12 12 13 12 11 12 12 13 10 6 5 5 7 6 6 8 8 8 8 8 8 8 8 9 8 6 7 7 8 8 8 8 8 8 8 8 8 9 9 9 8 6 8 9
4 5 7 6 6 3 3 4 3 2 2 6 6 4 3 4 4 5 4 5 7 7 5 5 5 7 10 10 11 10 10 10 9 9 7 6 5 6 6 10 11 7 7 8 8 9 8 10 11 12 13 10 10 12 13 14 12 11 12 12 13 11 9 8 7 7 7 6 9 8 9 8 7 8 7 8 8 7 8 8 9 9 8 8 8 8 9 8 8 8 8 7 7 9 7 8 8
9 3 4 6 3 5 4 2 3 2 5 5 2 3 5 6 4 5 8 5 4 5 6 7 7 8 9 8 8 7 6 7 7 6 7 6 3 2 5 8 7 8 6 8 8 8 9 10 11 13 10 11 10 11 12 13 12 12 11 11 12 11 10 10 11 11 9 10 8 8 7 6 7 7 7 7 8 8 8 8 7 6 6 5 6 6 7 7 7 6 6 6 7 7 6 7 7
4 7 7 7 2 2 1 1 2 4 5 1 1 2 1 7 7 8 6 9 8 5 5 3 4 5 4 2 2 3 4 5 6 6 5 5 7 6 5 5 5 6 10 9 10 9 9 9 11 13 12 10 11 11 13 12 11 12 11 10 10 9 10 10 10 10 7 9 8 7 7 8 6 7 8 8 8 10 9 8 9 9 7 6 6 6 5 6 6 6 7 7 7 7 7 7 7
6 9 7 6 2 2 3 3 1 3 4 3 0 1 3 3 6 12 13 17 17 9 5 7 7 7 6 5 4 4 4 5 5 5 5 5 5 5 5 5 5 5 6 8 7 8 7 8 9 12 12 9 8 9 11 11 12 10 9 9 8 8 9 9 9 9 8 7 7 9 9 8 8 9 8 9 8 8 8 8 8 8 8 8 8 8 7 7 7 7 8 8 9 8 6 7 7
7 4 9 7 6 4 3 3 4 6 5 2 3 1 6 4 4 4 12 11 10 8 5 4 4 4 4 3 2 1 2 3 4 5 5 7 8 7 7 7 6 6 6 6 6 6 6 7 8 10 9 9 9 11 10 11 11 9 8 7 8 7 9 8 8 7 7 7 7 8 8 6 8 7 8 7 6 8 7 7 7 8 8 8 8 8 8 8 8 8 7 8 7 6 7 7 7
3 4 5 6 7 5 4 4 4 2 1 0 1 5 5 4 2 8 5 6 7 8 6 3 4 1 0 2 4 5 5 5 5 6 7 7 7 7 6 6 7 6 7 5 6 5 6 8 7 8 10 9 9 10 9 10 9 7 7 8 8 8 7 6 5 6 7 7 7 7 8 8 7 7 6 6 7 8 8 8 7 8 8 8 7 8 7 7 7 7 6 6 7 5 7 8 8
4 5 6 5 4 7 3 2 0 2 3 6 2 4 5 7 7 9 10 4 7 5 6 4 5 4 2 4 5 6 6 5 6 7 7 6 4 5 6 6 5 5 5 7 8 7 8 7 8 8 8 6 8 8 9 7 7 8 8 8 7 7 8 9 9 7 8 7 6 7 7 8 7 7 7 7 7 7 7 8 8 7 7 7 7 7 7 7 7 7 6 6 7 6 7 8 7
6 3 7 2 1 5 5 4 1 0 4 5 3 6 4 2 4 4 2 6 11 9 7 5 4 4 5 8 7 7 7 7 6 6 6 6 7 7 7 6 7 8 8 8 9 8 8 8 8 9 7 8 7 7 8 8 9 9 8 8 8 8 8 7 7 7 6 7 8 7 7 6 7 8 7 6 7 7 7 8 7 7 6 6 7 6 6 6 6 6 6 7 7 6 7 7 7
3 5 3 8 2 6 2 3 4 2 4 3 2 3 3 6 5 6 8 4 5 8 6 3 5 5 6 7 8 6 6 5 5 6 6 6 6 7 7 7 6 7 7 8 7 6 6 5 5 6 8 7 7 7 6 6 7 8 8 9 9 7 6 6 6 7 7 8 8 8 7 8 7 7 7 6 7 6 6 6 7 6 7 6 5 6 6 6 6 6 5 6 5 6 7 7 6
0 1 2 1 3 4 5 7 3 5 5 1 6 1 5 5 5 9 11 10 8 7 5 4 5 5 6 6 6 6 6 6 6 7 7 6 6 6 7 7 7 7 7 6 6 5 6 6 5 5 5 5 5 7 8 8 7 7 6 6 6 6 6 6 6 8 8 8 8 7 6 5 7 7 6 5 5 5 5 5 5 6 5 5 5 4 5 5 5 6 6 6 6 6 7 7 5
0 2 4 1 1 2 4 0 6 6 3 3 2 2 4 6 7 6 9 8 5 4 4 4 5 4 4 5 5 6 7 7 7 7 6 5 4 4 4 4 5 4 4 4 5 6 6 5 6 6 8 7 8 7 7 7 6 6 6 8 7 7 7 6 5 7 8 7 6 5 5 5 4 4 4 4 5 4 4 5 4 4 5 5 5 5 4 5 5 6 6 6 5 6 7 6 5
9 11 9 10 7 5 8 8 2 2 3 4 2 9 6 9 3 6 5 6 5 4 3 3 3 3 4 4 3 3 5 6 5 5 3 4 3 4 4 2 2 4 4 5 4 5 5 6 6 6 6 7 7 7 7 6 6 6 6 6 7 5 6 5 5 5 5 5 4 4 4 4 5 4 4 4 5 4 5 5 5 5 4 4 4 4 4 5 5 5 5 5 5 6 6 6 4
Wind_Direction
323 323 316 302 216 326 43 13 51 307 67 262 288 9 237 340 147 79 86 30 60 345 152 104 65 41 91 135 118 100 26 90 255 143 212 161 115 121 125 128 129 125 127 129 121 113 114 116 116 116 118 118 111 88 84 87 99 103 98 102 101 96 95 98 96 95 90 88 84 85 85 84 86 87 88 88 87 85 84 84 81 78 80 83 84 82 80 82 83 83 83 83 82 80 75 73 75
308 324 315 331 273 65 306 125 103 356 35 2 268 138 196 155 67 131 132 108 150 140 99 81 62 71 99 119 130 103 34 18 306 126 81 106 110 120 131 134 135 130 132 129 120 122 123 124 120 118 117 114 109 104 99 98 104 107 103 100 103 98 101 97 91 90 90 90 91 89 88 88 87 86 84 83 83 83 83 83 81 82 82 82 81 84 84 83 83 84 85 84 83 82 78 79 80
315 345 349 12 19 103 268 46 275 48 67 279 273 225 155 80 101 98 125 108 115 115 87 67 69 72 97 113 42 63 255 14 78 74 96 125 118 146 133 132 128 129 132 129 126 129 131 132 130 123 119 117 118 114 116 106 103 106 109 101 105 103 100 99 98 97 95 93 93 93 91 87 82 82 85 82 81 80 78 80 82 80 80 82 85 87 87 86 86 87 87 88 87 81 81 79 76
301 253 107 46 339 19 57 18 106 159 229 222 296 301 62 127 123 120 120 123 116 94 62 30 63 275 99 71 99 67 91 113 32 119 124 144 141 143 135 132 132 131 129 127 132 135 134 135 122 121 119 119 116 111 109 106 110 110 110 106 102 106 105 106 101 94 92 91 91 91 86 85 84 84 82 83 82 81 81 79 81 82 82 83 84 85 88 90 90 90 93 91 85 83 82 79 79
317 308 126 75 99 0 90 204 179 119 252 212 184 283 128 124 127 112 106 113 92 92 75 110 73 40 76 107 144 113 162 108 114 40 114 118 137 141 135 136 138 136 130 131 133 135 136 132 127 125 124 123 119 113 112 107 98 102 111 115 103 93 98 97 97 97 96 99 94 85 86 86 86 84 83 85 88 88 86 86 84 84 86 88 89 89 87 88 91 92 91 89 84 81 80 78 76
316 5 356 102 134 185 45 356 309 268 228 172 132 155 159 148 124 120 119 87 66 64 117 81 141 109 39 2 20 118 148 135 174 73 129 141 141 141 139 140 135 132 131 129 134 135 137 134 134 130 124 122 117 113 112 110 105 103 112 118 104 86 105 104 99 97 97 96 95 93 90 87 85 83 83 84 83 82 84 84 84 85 80 82 85 87 88 89 90 92 92 87 84 80 76 72 72
321 27 0 24 342 55 163 209 293 232 274 150 153 154 150 165 131 114 111 81 352 73 37 111 110 98 80 170 59 62 255 153 126 153 143 143 138 140 142 133 130 127 128 132 135 135 142 141 134 129 125 123 122 120 113 107 106 102 110 117 103 95 106 103 98 99 98 94 90 92 94 90 87 88 88 87 85 85 84 86 88 87 88 88 88 87 87 86 89 90 91 87 84 76 70 69 72
91 101 279 100 258 55 262 199 254 139 287 78 162 139 152 147 139 116 135 110 180 120 16 125 113 91 62 43 118 297 28 64 122 133 133 130 139 140 137 130 124 127 129 132 134 140 146 140 131 130 130 128 125 119 113 110 111 107 105 112 107 101 104 109 105 101 100 100 101 96 92 94 92 91 91 90 89 89 90 90 87 85 84 83 82 84 85 88 88 89 89 86 77 67 66 60 59
342 83 330 75 299 7 338 245 238 224 278 96 95 140 150 150 145 125 124 146 104 108 163 94 119 94 205 69 62 70 55 120 115 127 135 136 140 142 136 130 127 129 129 133 136 141 139 138 132 133 131 130 126 120 114 109 109 112 107 114 118 109 99 111 109 105 102 98 94 98 97 96 99 93 92 92 94 94 90 90 90 89 87 86 85 84 85 88 90 90 88 83 73 67 62 59 59
341 97 273 159 130 233 286 298 107 249 179 171 142 154 150 151 130 125 131 119 164 139 191 138 99 112 121 101 113 21 145 131 121 117 139 144 142 136 126 126 129 129 131 135 136 140 141 140 134 131 132 131 128 123 116 115 118 117 109 113 119 105 101 106 108 108 105 103 98 93 90 97 102 99 96 94 95 92 92 91 91 91 91 90 88 86 87 90 93 90 87 84 76 68 63 63 62
1 11 147 91 22 229 227 269 255 292 168 139 132 169 161 140 129 128 142 147 155 144 199 109 71 124 116 91 183 256 145 131 131 148 157 155 137 127 120 126 130 132 137 140 138 139 142 141 136 134 131 131 129 124 119 116 120 120 118 116 121 119 109 107 108 109 109 106 103 95 79 84 96 102 97 90 89 89 89 89 89 89 87 86 88 91 91 93 92 89 86 87 78 70 67 66 65
30 149 38 141 207 182 237 200 206 242 294 199 140 180 190 142 126 120 135 123 140 124 151 132 168 131 85 126 129 147 143 142 142 153 156 154 137 132 124 129 132 135 138 140 136 140 142 142 138 137 133 130 126 124 120 119 118 111 116 122 123 124 117 112 111 110 110 106 95 89 88 92 99 97 94 89 82 86 91 94 93 89 91 92 91 91 92 93 90 88 90 90 83 75 72 70 69
134 143 105 102 234 181 228 112 201 176 194 237 167 218 139 132 152 149 145 127 138 122 152 202 142 108 116 143 178 140 145 169 155 154 159 161 150 132 123 130 133 135 135 137 139 143 145 145 143 142 138 129 126 124 122 123 118 113 98 115 128 124 121 117 118 113 102 95 92 90 89 91 101 97 93 89 84 86 86 84 96 99 96 95 95 94 95 96 94 90 90 90 85 79 79 74 71
119 173 118 229 184 194 160 254 137 143 247 237 232 193 104 138 190 150 127 125 155 146 230 181 86 111 83 88 142 163 167 166 154 160 165 165 130 131 123 131 134 136 138 141 144 147 149 148 144 140 137 130 128 124 125 122 119 111 106 99 111 122 123 117 109 101 99 95 90 89 93 97 99 100 96 93 93 89 84 80 86 98 97 97 98 98 101 99 96 93 92 90 84 80 78 73 66
224 216 96 154 268 71 224 129 206 177 235 188 217 146 169 32 94 128 139 131 185 231 130 75 162 97 201 157 203 190 168 166 154 161 173 144 140 129 125 130 133 137 142 145 146 149 154 149 146 143 142 134 133 130 130 121 114 114 113 109 108 117 114 108 108 109 106 103 101 101 99 98 97 97 98 99 99 94 87 79 81 84 98 97 97 101 101 101 98 98 97 93 88 83 78 67 62
164 81 97 80 252 201 274 177 182 125 240 167 221 115 86 18 30 100 199 142 157 352 77 143 23 172 155 173 189 172 153 153 154 154 155 152 121 125 126 131 134 141 147 147 153 158 155 154 151 150 146 146 137 133 127 124 119 118 116 113 111 112 114 114 115 114 114 112 111 108 107 103 98 96 96 94 97 94 89 86 84 95 101 100 99 102 102 101 100 96 96 96 92 83 70 58 48
51 80 347 345 266 184 261 194 152 204 225 169 200 154 148 90 305 60 316 131 108 38 66 352 92 44 143 214 146 141 141 141 144 148 152 150 124 136 127 129 137 145 148 154 158 164 162 157 157 158 157 155 146 136 127 120 122 117 113 114 115 116 117 117 116 116 116 122 119 120 115 111 111 104 95 99 92 96 94 87 88 80 79 92 101 103 103 98 94 96 97 98 96 83 58 48 38
64 140 133 272 204 171 230 227 192 193 134 187 188 191 126 128 128 121 67 54 89 77 84 36 46 37 67 109 124 129 137 142 152 158 170 164 150 151 145 152 146 167 155 160 168 165 161 162 164 164 161 164 154 144 137 129 130 119 122 121 118 119 118 119 122 130 135 143 143 134 129 128 115 109 109 105 106 101 98 98 95 98 90 86 90 93 93 92 90 89 93 105 103 89 65 44 27
139 184 121 219 204 232 287 278 191 128 191 168 179 157 162 168 138 185 96 126 115 87 43 77 78 61 83 107 121 132 139 146 156 170 173 172 164 165 162 159 158 166 168 167 172 165 163 163 165 168 166 166 154 148 143 144 138 132 134 132 132 133 138 134 139 144 156 163 165 144 99 123 121 120 120 118 112 109 109 105 98 96 96 96 98 96 92 87 84 80 80 88 78 51 42 19 10
238 121 219 244 211 242 356 348 288 229 134 142 151 203 158 187 142 168 131 156 129 144 136 99 121 131 128 130 131 138 143 151 163 173 178 179 167 167 168 167 164 174 177 174 168 167 159 163 170 171 168 165 154 151 150 151 149 147 145 144 143 149 152 153 155 164 179 179 177 135 118 127 116 113 116 114 110 105 102 102 105 103 103 101 98 91 92 97 91 74 72 47 35 5 14 345 325
266 124 203 230 244 270 310 335 315 184 147 154 162 123 136 195 167 138 152 118 201 195 186 158 163 151 147 148 145 145 148 157 167 178 180 180 174 174 177 174 168 172 176 171 169 169 168 167 170 169 166 161 153 153 157 162 157 155 156 156 157 159 168 170 172 178 194 182 165 149 142 134 125 130 131 122 120 122 121 122 120 121 120 120 115 117 123 110 108 112 144 51 327 282 319 297 279
85 211 212 221 328 98 269 291 303 288 142 135 151 135 193 120 103 156 155 161 199 193 196 167 155 155 152 155 158 151 157 163 172 180 185 182 178 177 177 171 161 168 168 172 187 172 171 172 168 165 164 162 159 160 166 165 158 164 166 171 164 172 174 184 181 187 201 167 167 140 152 127 134 137 139 138 141 143 142 153 150 147 143 152 131 128 138 134 142 139 149 200 251 257 249 225 227
249 289 222 217 227 168 277 336 320 266 131 141 146 185 111 147 182 194 167 184 235 211 176 167 159 163 161 154 154 163 166 173 177 184 182 184 184 184 183 179 173 175 176 181 180 184 173 170 166 157 166 162 162 166 162 164 171 171 169 174 170 181 180 184 183 184 194 153 154 149 137 138 144 151 150 152 157 161 164 165 162 168 170 168 166 139 170 162 156 152 162 198 233 262 291 271 202
207 243 206 233 134 170 223 241 311 32 136 158 171 132 137 147 151 208 163 252 225 247 228 167 163 154 149 156 170 170 174 177 184 185 186 188 184 185 183 182 183 164 170 181 181 181 179 175 160 159 165 164 166 170 166 173 177 172 172 175 181 182 177 186 176 176 182 147 154 170 144 147 155 161 168 163 169 175 180 172 170 178 189 193 169 160 167 175 161 167 178 219 236 244 188 171 102
208 257 239 219 71 213 239 129 342 31 94 130 116 133 171 152 172 134 221 187 207 121 141 151 146 149 160 163 172 174 176 179 182 186 189 195 194 185 184 182 183 172 180 181 182 180 184 177 164 161 164 167 168 171 175 177 176 171 170 175 185 183 183 177 172 171 175 155 164 171 157 145 159 171 178 177 172 187 194 166 174 187 200 190 148 167 166 173 172 188 204 205 213 203 168 106 79
227 240 180 146 91 263 273 98 333 20 20 92 92 98 6 193 155 183 197 200 214 121 100 136 146 154 165 173 173 173 177 185 186 188 193 190 190 185 193 185 184 188 187 180 180 184 183 177 176 170 165 170 169 169 179 172 175 165 174 179 177 178 188 175 161 169 176 159 172 173 173 155 170 175 187 184 164 191 193 171 176 186 195 182 143 158 184 168 177 185 210 190 179 182 147 215 127
278 253 197 155 182 124 287 147 212 308 88 98 134 133 131 312 134 251 197 181 169 112 117 132 149 164 171 172 176 178 176 181 187 189 186 192 200 196 196 189 188 190 181 186 184 183 183 178 181 175 169 169 164 169 172 173 173 169 175 175 170 176 183 177 158 163 171 173 172 173 168 178 165 179 177 183 181 170 179 165 166 175 172 164 159 163 176 171 189 190 191 188 189 189 226 234 176
351 37 59 74 144 155 241 112 194 77 349 113 110 104 115 338 29 222 205 179 159 128 139 147 156 166 172 176 177 182 186 187 183 179 190 193 197 198 196 192 187 183 184 186 184 177 179 182 178 178 175 171 171 167 171 168 174 173 174 168 180 183 172 178 169 162 168 178 175 172 180 177 167 178 173 178 178 171 173 172 164 162 181 178 168 158 172 180 186 201 200 188 195 179 206 212 195
219 284 279 268 93 144 208 151 218 118 231 150 147 86 270 199 218 220 197 168 168 141 155 160 164 171 174 177 179 183 192 187 183 191 198 197 192 195 201 194 183 179 187 179 179 172 178 181 176 179 176 175 178 177 171 172 169 170 173 175 181 183 179 178 177 185 177 174 180 178 188 181 175 172 189 174 177 173 173 175 178 184 192 181 178 165 170 180 180 188 205 174 145 157 134 183 124
170 211 198 6 323 300 236 179 151 127 267 171 169 218 244 226 229 215 190 162 154 141 161 171 171 172 178 176 181 189 193 185 191 198 198 196 193 193 198 196 186 175 178 180 176 180 176 179 177 178 176 178 182 179 172 173 172 172 175 176 178 183 188 181 186 190 195 184 178 188 187 190 178 178 179 188 169 171 176 181 189 199 198 189 175 162 167 176 165 157 177 146 138 134 160 188 147
176 233 136 197 112 262 231 168 170 144 260 166 98 197 274 258 254 209 199 163 159 170 176 180 180 179 176 181 181 188 196 191 195 197 197 196 196 193 193 191 189 175 170 181 185 184 174 179 180 182 177 181 176 180 179 176 170 172 176 179 182 183 191 192 188 191 195 196 174 187 190 192 193 176 182 181 183 170 176 188 194 198 189 185 176 178 164 180 164 171 160 164 171 154 153 184 181
195 167 233 284 160 273 321 124 169 159 251 146 105 280 239 260 275 215 177 170 159 172 185 188 187 186 181 180 184 188 195 197 202 200 196 196 195 195 190 192 191 181 176 184 187 183 183 180 183 182 182 180 188 183 181 175 170 174 177 181 182 188 191 199 193 192 193 196 187 184 193 192 196 189 176 182 181 182 179 187 196 188 186 175 177 173 162 171 175 161 187 163 175 220 182 214 216
246 163 236 208 166 245 19 242 203 122 128 239 173 203 309 292 280 166 182 166 171 170 187 197 199 194 191 183 185 189 189 203 206 200 197 196 199 194 194 193 192 192 182 175 183 186 187 185 183 183 186 185 187 186 179 180 170 174 180 182 185 188 195 200 199 192 195 196 194 191 192 190 193 194 183 181 180 187 187 187 188 186 179 173 170 173 176 176 166 177 193 193 177 198 204 208 211
216 176 194 209 182 205 218 304 214 155 140 202 227 198 236 269 310 172 166 168 160 178 194 197 200 200 197 193 188 187 192 195 202 198 198 195 195 194 195 192 193 194 193 184 182 184 189 185 187 186 187 186 186 188 186 181 184 169 181 183 185 190 197 199 201 189 197 198 193 196 192 190 194 194 189 182 185 188 187 186 186 185 175 172 169 171 182 176 181 175 191 204 186 183 203 206 210
170 146 201 281 265 172 187 160 236 136 208 183 184 249 277 271 267 253 208 183 174 193 195 199 198 199 195 197 199 198 198 202 208 197 193 194 192 195 193 187 185 190 193 193 184 186 183 186 185 186 182 184 186 187 188 184 182 183 174 183 192 196 196 199 196 198 194 193 195 193 191 192 195 194 192 184 186 188 188 186 182 188 173 170 167 170 178 185 183 187 185 198 194 192 195 204 195
170 167 186 190 198 225 204 228 276 172 172 204 184 212 231 247 236 247 259 239 198 207 201 203 207 200 197 196 201 201 206 214 212 202 197 194 193 190 191 188 185 186 190 190 186 182 184 183 186 185 185 179 178 182 181 185 185 189 190 185 197 201 197 195 200 199 188 194 194 185 190 192 194 195 191 187 187 188 189 188 188 181 177 166 170 174 188 191 192 183 193 176 172 131 51 112 129
137 157 174 203 199 256 305 271 289 83 120 223 212 230 247 264 229 235 218 222 253 264 239 223 206 199 200 203 202 206 206 212 203 201 199 198 197 193 190 188 189 187 189 187 185 185 184 184 181 190 190 177 172 179 185 186 191 195 200 202 203 194 196 193 199 200 198 197 193 192 187 191 191 192 194 186 190 187 193 189 181 184 179 179 180 194 193 192 190 185 173 171 169 176 198 118 119
144 134 174 227 198 209 262 243 312 329 156 260 215 242 257 255 256 235 215 161 219 218 223 228 221 207 203 200 206 207 212 218 191 208 211 204 200 195 188 188 184 187 199 189 191 193 186 182 185 190 185 189 185 185 186 191 195 197 195 202 190 184 188 194 201 203 203 199 200 200 197 193 194 193 191 190 191 189 189 184 185 185 181 188 194 186 167 171 171 175 158 167 213 186 207 177 178
292 141 166 201 233 163 275 344 346 298 98 257 7 220 255 251 251 255 171 195 221 214 205 209 207 214 211 210 210 209 203 211 199 206 201 201 197 194 189 193 195 194 192 193 195 192 190 184 191 187 188 189 192 187 185 196 196 197 195 197 183 178 203 198 197 195 191 199 205 206 200 196 193 196 191 189 189 190 188 181 190 184 186 176 167 170 176 177 183 183 180 181 198 269 201 190 189
208 81 76 216 203 138 250 291 30 346 133 235 52 342 284 290 270 255 227 202 230 218 212 221 204 207 211 208 199 196 206 202 203 199 202 201 195 195 194 196 198 193 192 198 197 195 194 192 191 190 189 189 190 190 191 196 194 192 196 172 179 167 176 193 190 188 199 200 209 203 203 192 187 190 189 190 192 190 186 188 184 184 187 181 180 178 182 190 180 185 191 202 170 186 204 227 203
240 144 141 147 122 207 154 204 113 342 0 86 42 350 303 256 270 289 265 226 238 241 219 241 248 236 225 221 200 200 198 199 203 204 206 194 196 201 197 198 190 195 197 197 195 194 195 196 194 190 189 193 193 189 189 177 161 164 167 140 143 173 99 155 190 211 204 205 205 208 207 189 190 192 191 194 195 195 192 193 188 189 185 188 186 190 189 195 195 193 188 185 193 203 224 215 220
260 232 176 178 183 116 85 94 104 34 318 306 134 6 297 285 257 237 239 252 230 226 205 223 224 227 225 223 219 216 218 202 195 199 200 197 198 199 201 196 196 201 202 201 195 195 193 195 192 189 192 195 197 195 189 178 179 176 173 178 187 194 206 194 198 203 198 199 207 202 205 202 200 201 199 200 201 199 199 198 194 188 191 190 196 201 200 191 193 190 193 194 205 209 217 216 217
182 253 189 173 150 126 127 134 87 9 204 296 71 179 267 327 306 265 263 258 255 255 215 229 220 221 215 219 220 215 211 215 225 216 205 197 206 197 201 200 201 201 207 196 199 200 198 195 194 189 191 195 195 191 186 183 188 191 193 196 198 199 204 214 214 193 196 204 188 196 201 196 202 202 205 202 201 200 201 199 197 195 194 194 197 201 203 201 196 198 190 199 202 200 203 235 224
206 235 98 130 115 130 169 135 134 202 227 315 31 123 183 294 291 265 253 228 264 272 250 239 233 229 225 226 225 218 217 213 205 212 209 205 196 195 199 204 200 205 196 192 201 200 199 196 192 195 193 192 193 186 185 189 192 195 196 202 203 207 209 213 201 193 172 172 190 197 192 199 203 207 206 208 206 197 198 200 198 195 194 196 192 203 206 202 195 198 196 200 201 195 197 216 231
213 247 163 155 158 162 135 122 137 148 104 269 332 294 238 260 270 294 321 296 310 274 241 240 232 226 226 230 229 223 218 213 207 208 211 206 203 205 205 201 208 202 194 196 197 197 198 197 196 194 195 189 192 188 187 192 194 193 196 197 203 213 210 208 186 175 170 176 192 195 196 195 198 205 206 202 205 201 194 203 202 201 197 198 193 206 207 195 195 195 201 206 204 205 202 211 220
257 176 84 79 78 81 128 102 115 39 120 256 255 200 198 282 276 332 332 283 278 265 249 235 229 226 225 228 229 223 217 215 217 219 215 210 208 208 206 206 199 204 199 198 196 191 194 189 193 193 200 192 190 191 193 195 194 187 192 195 198 200 193 190 173 189 190 180 192 193 195 195 196 199 206 206 203 205 201 202 208 209 208 203 194 203 200 201 200 204 206 206 206 208 205 207 218
125 88 67 38 41 37 25 66 103 90 271 250 227 224 152 287 268 218 192 223 212 251 283 282 262 252 247 238 230 222 216 215 215 217 224 232 247 231 206 202 205 201 197 188 189 189 186 189 192 196 201 193 190 193 193 198 196 195 198 196 196 193 187 180 181 197 193 187 198 194 194 198 190 198 195 207 209 202 204 204 213 214 208 205 198 198 200 200 203 207 206 202 204 209 211 218 227
134 110 118 82 358 17 28 347 39 161 262 262 253 198 169 195 291 277 234 268 237 217 231 254 266 252 252 247 243 240 230 229 229 221 228 212 187 192 187 206 200 199 189 195 191 187 188 191 190 197 198 194 193 193 193 198 197 202 205 200 201 197 184 187 194 197 194 196 195 194 194 188 198 192 191 202 209 206 202 199 196 197 201 200 204 200 204 199 198 198 200 202 210 210 213 212 222
101 108 111 138 195 46 299 14 247 233 210 254 320 135 20 249 232 249 279 265 268 230 211 219 231 255 256 258 241 215 195 189 200 208 199 192 194 185 186 196 184 188 196 194 195 192 191 189 189 192 200 192 193 190 193 195 196 200 199 198 200 191 192 195 200 203 198 199 193 191 187 200 193 191 193 199 207 202 201 203 200 210 217 206 196 194 200 192 192 194 200 205 206 205 205 208 218
121 142 141 131 120 110 191 254 231 305 291 262 197 300 247 241 279 245 243 262 259 257 224 244 240 226 211 209 197 173 173 175 190 194 200 205 207 208 202 193 193 195 197 195 195 193 191 189 191 194 199 187 186 188 193 194 201 198 194 190 188 182 195 196 202 203 203 204 196 203 201 200 199 205 195 201 196 197 201 200 194 203 209 207 204 202 198 197 194 197 199 205 207 208 196 203 216
188 137 146 166 147 151 187 183 195 217 212 296 282 105 234 127 246 234 234 246 278 289 246 226 216 233 233 234 227 233 220 239 217 206 210 210 213 207 206 203 202 203 203 201 197 197 186 192 190 194 191 192 185 190 189 196 197 194 191 188 187 186 195 198 205 201 197 201 207 205 206 200 202 208 206 203 184 192 199 201 200 200 204 205 203 205 200 197 196 199 203 204 210 200 206 206 213
206 166 106 127 204 141 150 199 160 197 183 1 306 210 185 172 248 292 234 254 271 270 268 235 224 218 197 182 206 213 223 227 226 222 228 225 214 207 210 211 209 204 204 203 202 195 195 199 195 197 195 189 190 187 192 190 190 186 187 188 192 190 193 192 200 199 206 203 204 202 204 202 206 202 209 197 206 198 201 205 202 204 202 205 203 200 197 197 197 201 205 202 211 197 202 207 213
224 120 187 204 165 100 101 23 16 99 44 251 184 313 293 295 319 264 280 281 267 305 295 295 281 285 321 280 260 249 248 246 237 228 228 232 234 225 210 207 211 205 203 204 204 199 197 193 195 200 202 191 189 191 185 181 180 183 195 192 187 189 190 196 200 201 206 209 205 203 200 205 202 200 203 202 202 201 202 200 200 202 202 204 202 202 199 198 195 199 200 200 207 200 200 210 208
109 155 209 188 102 114 132 215 16 127 208 261 109 200 290 38 280 333 332 260 266 265 260 248 260 284 270 249 243 240 238 240 247 242 235 217 203 200 202 203 197 196 198 202 205 201 200 198 197 196 195 194 192 185 184 180 180 189 191 195 197 194 194 199 194 198 199 205 216 210 204 200 203 200 192 193 186 185 191 193 193 198 197 192 199 200 199 199 194 203 204 205 203 190 205 214 212
140 192 204 132 199 193 245 137 232 211 237 268 256 228 250 172 237 327 317 303 275 266 265 267 255 251 251 264 267 265 262 264 254 244 240 229 207 201 193 196 200 198 198 200 198 193 195 200 199 195 199 198 184 183 183 186 186 189 191 196 196 197 195 195 197 195 195 204 210 210 204 204 196 190 179 174 178 177 180 186 184 192 189 195 190 186 186 195 192 202 204 208 206 197 206 216 214
10 36 119 101 121 185 147 191 166 120 252 153 292 147 234 213 218 210 235 242 243 277 324 261 251 235 239 249 264 263 259 244 234 229 228 217 212 200 190 187 190 195 193 193 185 180 190 191 185 195 194 181 173 181 182 188 192 186 191 191 201 197 194 192 195 196 204 206 206 197 193 180 193 174 175 166 165 174 176 178 182 179 190 196 201 205 182 186 187 205 200 207 206 198 208 215 216
206 117 196 284 10 258 107 217 169 174 185 194 208 303 276 257 216 201 230 235 224 209 234 229 230 247 236 239 245 257 246 232 228 229 226 226 225 222 215 202 194 185 176 169 175 182 186 181 188 187 184 186 185 186 179 189 177 191 184 194 196 195 200 194 193 198 198 202 196 187 182 184 144 170 150 149 156 168 173 178 182 190 192 204 203 216 203 191 195 206 210 208 203 204 214 225 211
174 166 193 179 127 116 165 241 14 122 178 229 188 253 261 267 200 207 214 230 214 229 199 218 242 246 258 255 262 252 259 252 244 253 247 225 219 216 213 188 148 147 159 168 177 171 182 189 192 185 183 185 183 185 184 182 184 182 191 194 196 195 195 191 195 196 197 192 188 181 179 148 167 194 157 165 172 180 178 183 187 200 202 209 208 207 204 192 206 217 227 214 211 210 221 229 214